Yakima, WA
on Thursday, January 17, 2013

Thursday
Previous Day Next Day
Daily Summary
 ActualAverageRecord
Temperature
Mean Temperature °F 31°F  
Max Temperature 29°F 39°F 61°F (2011)
Min Temperature 27°F 24°F -18°F (1950)
Degree Days
Heating Degree Days 37 34  
Month to date heating degree days 592 602  
Since 1 July heating degree days 2806 3265  
Cooling Degree Days 0 0  
Month to date cooling degree days 0 0  
Year to date cooling degree days 0 0  
Moisture
Dew Point 23°F   
Average Humidity 80    
Maximum Humidity 85    
Minimum Humidity 75    
Precipitation
Precipitation T in 0.04 in 0.36 in (1999)
Month to date precipitation 0.09 0.69  
Year to date precipitation 0.09 0.69  
Snow
Snow T in 0.10 in 2.10 in (1955)
Month to date snowfall 1.1 3.5  
Year to date snowfall 1.1 3.5  
Since 1 July snowfall 15.3 16.5  
Snow Depth 0.00 in   
Wind
Wind Speed 2 mph   
Max Wind Speed 13 mph   
Max Gust Speed 26 mph   
Visibility 5 miles   
Events     

Key: T is trace of precipitation, MM is missing value
Source: NWS Daily Summary
Time(PST)TemperatureDew PointHumidity Pressure Visibility Wind DirectionWind SpeedGust SpeedPrecipitationEvents Conditions
12:16 AM 28.4°F 24.8°F 86% 30.59 in 3.0 miles Calm Calm - N/A   Overcast
12:53 AM 28.0°F 24.1°F 85% 30.64 in 4.0 miles Calm Calm - N/A   Overcast
1:53 AM 28.0°F 24.1°F 85% 30.64 in 4.0 miles West 4.6 mph - N/A   Overcast
2:22 AM 28.4°F 24.8°F 86% 30.59 in 3.0 miles WSW 3.5 mph - N/A   Overcast
2:53 AM 28.0°F 24.1°F 85% 30.64 in 3.0 miles Calm Calm - N/A   Overcast
3:53 AM 28.0°F 24.1°F 85% 30.63 in 5.0 miles Calm Calm - N/A   Overcast
4:53 AM 28.0°F 23.0°F 81% 30.62 in 5.0 miles Calm Calm - N/A   Haze
5:53 AM 28.0°F 23.0°F 81% 30.61 in 5.0 miles Calm Calm - N/A   Haze
6:53 AM 28.0°F 24.1°F 85% 30.62 in 5.0 miles Calm Calm - N/A   Overcast
7:53 AM 28.0°F 23.0°F 81% 30.63 in 5.0 miles South 3.5 mph - N/A   Haze
8:53 AM 28.0°F 23.0°F 81% 30.63 in 3.0 miles Calm Calm - N/A   Haze
9:00 AM 28.4°F 24.8°F 86% 30.59 in 2.5 miles Calm Calm - N/A   Overcast
9:53 AM 28.0°F 24.1°F 85% 30.64 in 2.5 miles Calm Calm - N/A   Overcast
10:53 AM 28.0°F 23.0°F 81% 30.62 in 3.0 miles Calm Calm - N/A   Haze
11:53 AM 28.0°F 24.1°F 85% 30.59 in 3.0 miles Calm Calm - N/A   Overcast
12:53 PM 28.0°F 23.0°F 81% 30.57 in 3.0 miles Calm Calm - N/A   Haze
1:53 PM 28.0°F 23.0°F 81% 30.55 in 6.0 miles SSW 3.5 mph - N/A   Haze
2:53 PM 28.0°F 23.0°F 81% 30.53 in 6.0 miles South 3.5 mph - N/A   Haze
3:53 PM 28.0°F 24.1°F 85% 30.53 in 5.0 miles Calm Calm - N/A   Overcast
4:53 PM 28.0°F 23.0°F 81% 30.53 in 6.0 miles SW 3.5 mph - N/A   Haze
5:53 PM 28.0°F 23.0°F 81% 30.53 in 6.0 miles SW 5.8 mph - N/A   Haze
6:53 PM 28.0°F 23.0°F 81% 30.52 in 6.0 miles West 3.5 mph - N/A   Haze
7:53 PM 28.0°F 23.0°F 81% 30.52 in 6.0 miles WSW 4.6 mph - 0.00 in   Haze
8:53 PM 28.0°F 21.9°F 78% 30.50 in 7.0 miles WSW 4.6 mph - N/A   Overcast
9:53 PM 28.0°F 23.0°F 81% 30.47 in 6.0 miles WSW 3.5 mph - N/A   Haze
10:16 PM 28.4°F 23.0°F 80% 30.41 in 5.0 miles WSW 3.5 mph - N/A   Haze
10:45 PM 28.4°F 23.0°F 80% 30.40 in 5.0 miles Calm Calm - N/A   Haze
10:53 PM 28.0°F 23.0°F 81% 30.45 in 5.0 miles Calm Calm - N/A   Haze
11:53 PM 28.0°F 23.0°F 81% 30.45 in 7.0 miles Calm Calm - N/A   Overcast
Moon Phase
Jan. 17 Jan. 18 Jan. 26 Feb. 03 Feb. 10
Sunrise:07:40 AM (PST) Moon Rise:10:23 AM (PST)1/17
Sunset:04:44 PM (PST) Moon Set:No Moon Set/

Copyright © 2014 The Weather Underground, Inc.